Location: Grange Verzio
(44.5000°N, 6.9833°E)
Time: 06:43:40
(UTC+00:00)

RESURS DK-1 - Pass Details

Date: 01 February 2023
Orbit: 549 x 557 km, 69.9° (Epoch: 21 March)

Event Time Altitude Azimuth Distance (km) Brightness Sun altitude
Rises 18:20:49 0° 338° (NNW) 2,739 6.1 -18.0°
Reaches altitude 10° 18:23:07 10° 345° (NNW) 1,842 5.1 -18.4°
Enters shadow 18:26:49 42° 48° (NE) 800 2.7 -19.1°
